• în România
  • Lista ţărilor
  • Pe 7 zile
  • Temperatura apei
  • Hartă satelitară
  • Meteo pe hartă
  • Widget-uri
  • user-avatar
    Intrare

    Meteo pe oră la Mingachevir

    Astăzi, 21 Iulie, Sâmbătă

    Timp Temperatura Precipitaţii Vânt Presiune Umiditate
    00:00 +30°C° 0,2 mm 3 m/s 745 mmHg 64%
    01:00 +29°C° 0,1 mm 2 m/s 745 mmHg 66%
    02:00 +29°C° 0,1 mm 1 m/s 745 mmHg 69%
    03:00 +28°C° 0,1 mm 1 m/s 745 mmHg 71%
    04:00 +28°C° 0 mm 1 m/s 746 mmHg 70%
    05:00 +29°C° 0 mm 1 m/s 746 mmHg 69%
    06:00 +29°C° 0 mm 2 m/s 746 mmHg 67%
    07:00 +30°C° 0 mm 2 m/s 746 mmHg 62%
    08:00 +31°C° 0 mm 2 m/s 746 mmHg 56%
    09:00 +34°C° 0 mm 3 m/s 746 mmHg 51%
    10:00 +35°C° 0 mm 2 m/s 746 mmHg 47%
    11:00 +36°C° 0 mm 2 m/s 746 mmHg 43%
    12:00 +37°C° 0 mm 2 m/s 745 mmHg 39%
    13:00 +38°C° 0,1 mm 2 m/s 745 mmHg 37%
    14:00 +39°C° 0,1 mm 2 m/s 745 mmHg 35%
    15:00 +39°C° 0,1 mm 2 m/s 745 mmHg 33%
    16:00 +39°C° 0,1 mm 2 m/s 745 mmHg 33%
    17:00 +39°C° 0,1 mm 2 m/s 745 mmHg 33%
    18:00 +39°C° 0,1 mm 3 m/s 745 mmHg 34%
    19:00 +37°C° 0,3 mm 3 m/s 745 mmHg 38%
    20:00 +35°C° 0,3 mm 3 m/s 746 mmHg 42%
    21:00 +33°C° 0,3 mm 4 m/s 746 mmHg 46%
    22:00 +31°C° 0,3 mm 3 m/s 747 mmHg 49%
    23:00 +30°C° 0,3 mm 2 m/s 747 mmHg 52%

    Mâine, 22 Iulie, Duminică

    Timp Temperatura Precipitaţii Vânt Presiune Umiditate
    00:00 +29°C° 0,3 mm 2 m/s 747 mmHg 55%
    01:00 +29°C° 0 mm 2 m/s 747 mmHg 56%
    02:00 +28°C° 0 mm 1 m/s 747 mmHg 57%
    03:00 +28°C° 0 mm 1 m/s 747 mmHg 58%
    04:00 +28°C° 0 mm 1 m/s 747 mmHg 57%
    05:00 +29°C° 0 mm 1 m/s 747 mmHg 57%
    06:00 +29°C° 0 mm 1 m/s 748 mmHg 56%
    07:00 +30°C° 0,1 mm 2 m/s 747 mmHg 52%
    08:00 +31°C° 0,1 mm 2 m/s 747 mmHg 48%
    09:00 +34°C° 0,1 mm 3 m/s 747 mmHg 44%
    10:00 +35°C° 0,1 mm 2 m/s 747 mmHg 41%
    11:00 +36°C° 0,1 mm 2 m/s 747 mmHg 38%
    12:00 +37°C° 0,1 mm 2 m/s 746 mmHg 35%
    13:00 +38°C° 0 mm 3 m/s 746 mmHg 33%
    14:00 +39°C° 0 mm 3 m/s 745 mmHg 30%
    15:00 +40°C° 0 mm 4 m/s 745 mmHg 28%
    16:00 +40°C° 0 mm 4 m/s 745 mmHg 28%
    17:00 +40°C° 0 mm 4 m/s 745 mmHg 29%
    18:00 +38°C° 0 mm 4 m/s 745 mmHg 29%
    19:00 +37°C° 0 mm 5 m/s 745 mmHg 32%
    20:00 +35°C° 0 mm 5 m/s 746 mmHg 36%
    21:00 +33°C° 0 mm 5 m/s 746 mmHg 39%
    22:00 +32°C° 0 mm 4 m/s 746 mmHg 42%
    23:00 +30°C° 0 mm 3 m/s 746 mmHg 45%

    Poimâine, 23 Iulie, Luni

    Timp Temperatura Precipitaţii Vânt Presiune Umiditate
    00:00 +29°C° 0 mm 2 m/s 746 mmHg 47%
    01:00 +29°C° 0 mm 2 m/s 746 mmHg 49%
    02:00 +28°C° 0 mm 1 m/s 746 mmHg 50%
    03:00 +28°C° 0 mm 1 m/s 746 mmHg 52%
    04:00 +28°C° 0 mm 1 m/s 746 mmHg 51%
    05:00 +28°C° 0 mm 2 m/s 746 mmHg 50%
    06:00 +29°C° 0 mm 2 m/s 746 mmHg 49%
    07:00 +30°C° 0 mm 2 m/s 746 mmHg 45%
    08:00 +32°C° 0 mm 2 m/s 746 mmHg 42%
    09:00 +34°C° 0 mm 3 m/s 746 mmHg 38%
    10:00 +35°C° 0 mm 2 m/s 745 mmHg 35%
    11:00 +37°C° 0 mm 2 m/s 745 mmHg 32%
    12:00 +38°C° 0 mm 2 m/s 744 mmHg 30%
    13:00 +38°C° 0 mm 2 m/s 744 mmHg 29%
    14:00 +39°C° 0 mm 2 m/s 743 mmHg 27%
    15:00 +40°C° 0 mm 2 m/s 743 mmHg 26%
    16:00 +39°C° 0 mm 2 m/s 743 mmHg 26%
    17:00 +39°C° 0 mm 2 m/s 743 mmHg 27%
    18:00 +39°C° 0 mm 2 m/s 743 mmHg 27%
    19:00 +37°C° 0,1 mm 2 m/s 744 mmHg 30%
    20:00 +35°C° 0,1 mm 2 m/s 745 mmHg 33%
    21:00 +32°C° 0,1 mm 2 m/s 745 mmHg 36%
    22:00 +31°C° 0,2 mm 2 m/s 745 mmHg 40%
    23:00 +30°C° 0,2 mm 2 m/s 746 mmHg 44%

    24 Iulie, Marţi

    Timp Temperatura Precipitaţii Vânt Presiune Umiditate
    00:00 +29°C° 0,2 mm 2 m/s 746 mmHg 48%
    01:00 +29°C° 0 mm 2 m/s 746 mmHg 49%
    02:00 +28°C° 0 mm 3 m/s 746 mmHg 50%
    03:00 +28°C° 0 mm 3 m/s 746 mmHg 51%
    04:00 +28°C° 0 mm 3 m/s 746 mmHg 51%
    05:00 +29°C° 0 mm 3 m/s 746 mmHg 50%
    06:00 +29°C° 0 mm 4 m/s 746 mmHg 50%
    07:00 +32°C° 0 mm 4 m/s 746 mmHg 45%
    08:00 +34°C° 0 mm 4 m/s 746 mmHg 41%
    09:00 +35°C° 0 mm 4 m/s 746 mmHg 36%
    10:00 +36°C° 0 mm 4 m/s 746 mmHg 34%
    11:00 +37°C° 0 mm 3 m/s 745 mmHg 31%
    12:00 +39°C° 0 mm 3 m/s 745 mmHg 29%
    13:00 +39°C° 0 mm 2 m/s 745 mmHg 28%
    14:00 +40°C° 0 mm 2 m/s 744 mmHg 27%
    15:00 +41°C° 0 mm 1 m/s 744 mmHg 26%
    16:00 +40°C° 0 mm 2 m/s 745 mmHg 26%
    17:00 +40°C° 0 mm 2 m/s 745 mmHg 27%
    18:00 +40°C° 0 mm 2 m/s 745 mmHg 27%
    19:00 +38°C° 0 mm 3 m/s 746 mmHg 32%
    20:00 +36°C° 0 mm 3 m/s 746 mmHg 36%
    21:00 +34°C° 0 mm 4 m/s 747 mmHg 41%
    22:00 +33°C° 0 mm 3 m/s 747 mmHg 44%
    23:00 +31°C° 0 mm 3 m/s 747 mmHg 46%

    25 Iulie, Miercuri

    Timp Temperatura Precipitaţii Vânt Presiune Umiditate
    00:00 +30°C° 0 mm 2 m/s 748 mmHg 49%
    01:00 +30°C° 0 mm 2 m/s 747 mmHg 50%
    02:00 +29°C° 0 mm 1 m/s 747 mmHg 51%
    03:00 +29°C° 0 mm 1 m/s 747 mmHg 52%
    04:00 +29°C° 0 mm 1 m/s 748 mmHg 51%
    05:00 +30°C° 0 mm 1 m/s 748 mmHg 50%
    06:00 +30°C° 0 mm 1 m/s 748 mmHg 48%
    07:00 +32°C° 0 mm 1 m/s 748 mmHg 44%
    08:00 +33°C° 0 mm 1 m/s 748 mmHg 40%
    09:00 +36°C° 0 mm 2 m/s 747 mmHg 36%
    10:00 +37°C° 0 mm 2 m/s 747 mmHg 33%
    11:00 +39°C° 0 mm 2 m/s 747 mmHg 31%
    12:00 +40°C° 0 mm 2 m/s 746 mmHg 28%
    13:00 +42°C° 0 mm 3 m/s 746 mmHg 27%
    14:00 +43°C° 0 mm 3 m/s 745 mmHg 25%
    15:00 +43°C° 0 mm 3 m/s 745 mmHg 24%
    16:00 +43°C° 0 mm 4 m/s 745 mmHg 25%
    17:00 +43°C° 0 mm 4 m/s 745 mmHg 25%
    18:00 +42°C° 0 mm 5 m/s 745 mmHg 26%
    19:00 +40°C° 0 mm 4 m/s 746 mmHg 29%
    20:00 +37°C° 0 mm 4 m/s 746 mmHg 32%
    21:00 +35°C° 0 mm 4 m/s 747 mmHg 35%
    22:00 +34°C° 0 mm 4 m/s 747 mmHg 38%
    23:00 +33°C° 0 mm 3 m/s 747 mmHg 40%

    26 Iulie, Joi

    Timp Temperatura Precipitaţii Vânt Presiune Umiditate
    00:00 +31°C° 0 mm 3 m/s 747 mmHg 42%
    01:00 +31°C° 0 mm 2 m/s 747 mmHg 43%
    02:00 +30°C° 0 mm 2 m/s 747 mmHg 45%
    03:00 +30°C° 0 mm 2 m/s 747 mmHg 47%
    04:00 +30°C° 0 mm 1 m/s 747 mmHg 46%
    05:00 +30°C° 0 mm 1 m/s 747 mmHg 45%
    06:00 +31°C° 0 mm 1 m/s 747 mmHg 45%
    07:00 +32°C° 0 mm 1 m/s 747 mmHg 40%
    08:00 +35°C° 0 mm 2 m/s 747 mmHg 36%
    09:00 +37°C° 0 mm 2 m/s 747 mmHg 32%
    10:00 +38°C° 0 mm 2 m/s 746 mmHg 30%
    11:00 +39°C° 0 mm 3 m/s 746 mmHg 29%
    12:00 +40°C° 0 mm 3 m/s 745 mmHg 27%
    13:00 +42°C° 0 mm 3 m/s 745 mmHg 26%
    14:00 +42°C° 0 mm 3 m/s 745 mmHg 25%
    15:00 +43°C° 0 mm 3 m/s 744 mmHg 24%
    16:00 +43°C° 0 mm 4 m/s 744 mmHg 25%
    17:00 +43°C° 0 mm 4 m/s 744 mmHg 26%
    18:00 +42°C° 0 mm 5 m/s 744 mmHg 27%
    19:00 +40°C° 0 mm 4 m/s 745 mmHg 30%
    20:00 +37°C° 0 mm 4 m/s 745 mmHg 34%
    21:00 +35°C° 0 mm 3 m/s 745 mmHg 37%
    22:00 +34°C° 0 mm 3 m/s 745 mmHg 40%
    23:00 +33°C° 0 mm 3 m/s 745 mmHg 43%
    Arată mai mult